RH
69 69 68 66 57 45 36 32 32 32 32 32 33 32 32 32 31 31 30 30 30 28 28 28 27 28 27 26 24 23 23 23 23 24 23 23 23 23 23 23 23 25
69 69 69 72 72 62 49 38 32 32 32 31 31 31 31 31 31 32 33 33 33 32 32 31 30 31 32 31 31 28 26 24 23 23 23 23 23 22 23 23 23 23
66 68 68 70 72 71 64 51 38 32 32 32 32 31 30 30 30 31 31 32 33 34 34 34 33 34 34 34 34 33 31 28 25 23 21 21 22 22 22 22 22 23
62 67 68 68 70 70 68 63 51 39 33 31 32 33 31 31 30 30 30 30 31 32 33 34 35 35 35 35 35 34 33 31 28 25 22 20 20 20 22 22 22 22
60 65 68 69 70 68 64 63 61 53 43 33 29 31 32 33 32 32 31 30 30 31 31 33 34 35 36 35 35 34 33 31 29 27 25 22 20 19 20 20 21 21
57 60 67 70 71 69 63 60 60 59 56 46 34 29 30 33 34 34 34 33 32 31 31 32 33 33 34 35 35 35 33 30 29 27 25 23 21 20 19 20 20 20
56 57 63 69 70 67 62 58 56 56 57 55 46 33 28 31 34 35 35 35 34 33 32 31 31 32 32 33 35 35 34 32 29 27 25 24 22 20 19 19 20 20
56 55 58 64 66 64 60 56 55 53 54 55 53 41 29 25 28 30 31 32 32 32 31 30 29 29 30 31 32 33 33 31 28 26 25 23 22 21 20 19 19 20
53 52 54 58 60 59 57 55 53 53 53 54 55 48 34 23 21 23 24 25 26 26 27 27 27 28 28 28 28 28 28 28 27 26 25 23 22 21 20 20 20 20
50 51 51 54 58 56 54 53 52 52 54 54 55 51 40 27 20 19 19 19 20 22 23 25 26 27 27 26 26 26 26 26 26 26 25 24 23 21 21 20 21 21
50 50 51 54 57 56 52 51 50 51 53 54 54 51 43 32 22 18 18 18 19 21 23 24 26 26 25 25 26 27 28 28 29 29 27 26 24 23 22 21 21 22
50 50 52 56 58 55 52 51 49 50 53 54 54 50 44 34 25 20 19 19 20 21 22 24 25 24 23 24 27 30 34 35 35 33 31 29 27 25 24 23 22 23
50 51 54 58 58 54 51 50 49 51 52 53 52 50 45 37 27 22 21 21 21 21 22 23 22 21 21 25 31 36 38 38 36 34 32 30 29 27 26 25 24 24
52 54 57 60 58 52 50 50 50 52 53 51 50 49 46 40 30 23 21 20 20 20 21 22 20 19 22 28 35 38 37 35 32 30 29 29 29 28 27 27 26 26
56 57 61 62 57 51 49 49 51 53 52 50 47 47 47 42 32 24 20 20 20 20 21 20 19 19 24 31 36 37 35 32 28 24 25 28 29 30 29 29 28 28
60 62 65 62 55 50 48 48 49 51 52 51 49 48 46 41 31 22 20 19 19 20 19 19 19 20 26 33 35 34 32 28 24 21 23 26 30 32 33 32 31 31
63 66 66 60 53 49 46 45 47 49 52 53 50 47 43 36 27 20 19 19 19 19 19 19 19 22 29 34 33 32 30 26 23 21 21 24 28 31 33 33 33 33
65 69 65 57 51 47 43 44 46 49 53 53 50 47 40 31 24 19 18 18 18 19 19 20 21 24 31 33 31 30 29 26 25 23 22 23 24 27 29 30 31 33
69 69 62 54 47 43 42 43 46 49 52 51 49 44 35 26 22 19 18 19 18 19 21 21 22 27 32 32 30 29 28 27 27 26 26 27 27 28 30 31 33 34
70 63 56 49 43 41 42 43 46 49 49 46 43 36 27 22 21 19 19 19 18 20 22 22 24 30 33 31 29 28 27 27 28 28 28 30 31 33 35 37 39 40
63 55 50 47 43 44 45 45 47 49 46 40 36 29 23 21 22 21 20 20 20 22 24 23 26 32 33 30 29 28 28 28 29 29 29 30 33 35 37 40 43 44
57 52 50 49 49 51 52 51 51 49 41 34 30 25 22 22 22 21 20 20 23 27 26 24 29 34 33 31 31 29 28 30 30 31 31 31 33 35 37 39 42 45
56 54 55 56 58 60 60 58 56 49 37 29 27 24 22 22 21 19 20 24 29 31 27 26 32 36 34 33 32 30 30 32 32 33 34 33 34 35 37 39 40 42
65 67 67 68 68 69 69 67 61 48 32 26 26 24 22 21 18 19 24 31 35 32 28 30 36 37 36 36 35 33 33 34 35 36 37 37 37 38 38 39 40 42
84 85 81 81 81 80 79 74 60 40 27 25 25 22 21 19 18 23 32 37 36 32 30 34 38 39 39 39 38 38 37 37 38 39 40 40 41 41 42 42 43 44
96 94 89 89 89 87 83 70 49 31 24 24 23 21 19 18 21 31 38 38 36 33 33 38 40 41 43 43 42 42 42 42 42 43 43 44 45 45 46 47 48 48
Wind_Speed
53 54 55 55 55 55 54 54 54 54 54 55 55 56 57 57 57 58 58 58 59 59 60 60 61 62 63 63 64 64 65 66 68 71 73 75 77 79 80 81 82 83
52 55 56 57 57 57 56 56 56 55 55 55 56 56 57 57 58 58 58 59 60 60 61 62 63 64 65 66 67 67 68 68 69 70 71 74 76 78 80 82 82 83
52 55 57 58 59 59 57 57 56 56 56 56 57 57 58 58 59 60 60 60 61 61 62 63 64 65 66 67 68 69 71 71 72 72 72 72 74 76 79 81 82 83
53 57 59 61 62 61 59 57 56 56 56 57 57 58 59 60 60 61 62 62 62 63 63 64 65 66 67 69 70 71 72 73 74 75 74 74 74 75 77 80 81 82
56 58 61 63 64 64 62 59 58 57 57 57 57 58 59 61 62 63 64 64 64 65 65 65 66 67 68 69 71 72 74 75 75 76 76 76 76 75 75 77 80 82
58 59 63 65 67 67 65 62 60 58 58 58 58 58 60 61 62 63 64 65 66 66 67 67 68 68 69 70 72 73 75 76 76 77 77 77 77 77 76 76 78 80
60 60 63 67 69 69 67 65 63 61 61 60 59 58 58 60 61 63 64 65 66 67 67 68 68 69 70 71 72 73 75 77 77 77 77 77 77 78 77 77 77 78
61 61 63 66 69 70 69 67 65 64 64 64 62 60 58 58 60 61 63 64 65 66 67 68 69 69 70 71 72 73 74 76 77 78 77 77 77 77 77 77 77 77
61 62 63 66 69 71 70 69 68 67 68 67 66 63 60 59 59 60 61 63 64 66 66 67 68 69 69 70 71 72 73 74 75 76 77 77 76 76 76 76 77 77
63 63 64 67 71 72 72 71 70 70 70 71 70 67 64 61 60 60 61 62 64 65 66 67 68 69 69 69 68 69 71 72 72 73 75 75 75 74 74 75 75 76
66 67 67 70 73 74 74 74 73 73 73 74 73 70 67 64 62 62 62 63 64 66 67 68 69 69 69 68 67 68 68 68 68 69 71 72 73 72 72 72 73 75
70 70 71 74 77 77 76 76 76 76 77 77 76 73 70 67 65 64 64 65 66 66 67 68 69 69 68 67 67 67 67 66 65 66 67 69 70 70 69 70 71 73
74 74 76 79 80 79 79 79 79 80 80 79 77 75 72 70 68 67 66 67 67 67 67 68 69 68 67 67 67 66 64 64 63 63 63 64 66 66 66 66 68 70
77 78 81 84 84 82 82 82 83 84 83 80 78 76 74 72 70 68 68 67 67 67 67 68 68 67 67 67 65 63 63 62 61 59 58 59 60 61 61 62 64 67
81 82 85 87 86 85 84 85 86 86 85 82 79 77 75 73 71 70 68 67 67 67 68 69 68 67 66 64 62 61 60 59 58 56 53 53 54 56 58 59 61 63
84 87 89 90 89 87 86 86 87 87 87 84 81 78 76 73 71 69 68 67 67 66 67 69 68 66 64 61 59 58 58 56 54 52 50 49 50 53 55 57 58 60
87 90 93 92 91 89 87 87 87 88 89 86 82 79 75 72 70 69 68 67 67 67 67 68 67 65 61 58 56 55 54 52 50 48 47 47 47 50 52 54 56 57
90 93 95 94 92 89 87 87 88 90 91 88 84 79 75 72 70 69 69 68 67 67 68 67 65 62 58 55 54 52 49 47 46 45 44 44 44 46 48 50 52 53
94 96 96 94 92 89 88 88 90 92 93 90 85 80 76 73 71 70 70 69 68 68 67 65 62 58 54 51 50 48 45 44 43 42 41 41 42 42 44 46 47 49
97 97 96 94 92 91 91 91 92 94 93 89 85 80 76 74 73 72 71 70 69 68 65 62 58 54 50 47 45 43 41 40 40 40 39 39 40 40 41 43 45 46
100 99 97 96 95 95 96 95 94 95 93 89 84 80 78 76 75 74 73 71 69 66 63 58 54 49 46 43 41 39 38 37 38 38 38 38 38 39 40 41 42 44
101 101 101 101 101 102 102 100 98 96 93 88 84 81 79 78 77 75 73 71 68 64 59 54 49 45 42 40 39 37 36 35 35 36 36 36 37 37 38 39 40 42
105 106 107 108 109 110 109 107 103 98 92 88 84 82 80 78 76 74 72 70 66 61 55 49 45 42 40 39 38 37 36 35 35 35 35 36 36 36 37 38 39 40
112 114 115 116 116 116 115 111 105 98 91 87 84 82 79 76 73 71 70 67 63 57 51 45 41 39 38 38 38 37 36 36 35 35 36 36 36 36 37 37 38 39
122 123 123 123 123 121 117 111 104 96 90 86 83 80 76 73 70 68 66 62 58 52 46 41 39 38 38 38 38 38 38 38 37 37 37 37 37 37 38 38 39 39
129 129 129 128 126 121 115 107 100 93 88 84 80 76 72 69 67 64 61 56 52 47 42 39 38 38 38 39 39 39 39 39 39 39 40 40 39 39 39 40 40 41
Wind_Direction
345 345 344 341 337 331 324 317 312 307 304 302 300 299 298 296 296 294 293 292 291 289 288 287 286 284 283 281 279 276 273 270 267 265 263 262 261 261 260 259 258 257
345 344 344 343 341 337 331 324 318 312 308 304 302 299 297 296 294 293 291 290 289 288 287 286 285 283 282 281 280 279 277 275 272 269 266 263 262 261 260 259 258 258
344 344 343 342 341 339 336 331 324 318 312 308 304 301 299 297 295 293 291 290 288 287 286 285 284 283 281 280 279 278 277 276 275 272 269 266 263 261 260 259 259 258
342 343 342 341 339 338 337 334 330 325 318 312 307 303 300 298 296 294 292 291 289 287 286 284 283 282 281 280 278 277 276 275 275 274 272 269 266 263 261 259 258 258
339 341 340 339 338 337 335 334 333 330 325 319 312 307 303 300 298 296 294 292 291 289 288 286 284 282 281 280 278 277 276 275 274 273 272 271 269 266 263 260 258 257
336 338 339 338 338 336 334 332 332 331 329 325 319 312 306 302 299 296 294 293 291 290 288 287 285 284 282 281 279 278 277 276 275 273 272 271 270 268 265 262 259 257
334 335 337 337 336 335 333 331 330 330 329 328 324 317 309 304 300 296 294 292 291 290 288 287 286 284 283 282 281 280 279 278 277 275 273 272 270 269 267 264 262 259
332 333 334 334 334 334 332 331 329 328 328 328 325 320 313 306 300 297 295 292 291 290 288 287 286 285 284 284 283 282 281 280 278 277 275 273 271 269 267 265 263 260
330 330 331 332 333 332 331 330 329 328 328 328 326 322 316 309 303 300 297 295 293 292 291 291 290 289 288 287 286 284 282 280 279 277 276 273 271 269 267 265 263 261
329 329 329 330 331 330 329 329 328 328 328 328 327 324 318 312 308 304 301 299 298 298 297 297 296 295 294 292 290 287 284 282 280 278 276 274 272 269 267 265 263 261
328 328 328 329 329 329 328 328 328 328 328 328 327 325 320 316 311 308 306 305 304 303 302 301 300 299 298 297 294 290 287 285 282 279 277 274 272 270 267 264 262 260
327 327 327 328 328 328 327 327 327 327 327 327 327 325 322 318 315 312 311 310 309 307 305 304 303 302 301 299 297 294 291 288 285 281 278 275 273 270 267 264 261 259
325 326 326 327 327 326 326 327 327 327 326 325 325 324 323 321 318 316 315 313 310 308 307 306 305 304 303 301 298 296 294 291 288 285 281 277 274 270 267 264 261 258
324 325 326 326 326 325 326 326 327 327 326 324 324 323 323 321 320 318 315 313 311 309 308 307 306 305 304 302 300 298 296 294 291 287 283 279 275 271 268 264 260 258
324 325 325 325 325 325 325 326 327 327 326 324 322 322 322 321 320 318 316 314 312 310 309 308 306 306 304 302 300 299 298 295 292 289 284 279 275 272 269 265 262 259
323 324 325 324 324 324 324 325 326 327 326 324 322 321 320 319 318 317 315 314 312 311 309 308 307 305 303 302 301 300 298 296 293 290 286 281 276 273 270 267 264 261
322 323 323 323 323 323 323 324 325 326 326 324 322 320 318 317 317 316 315 314 312 311 309 308 306 305 302 301 301 300 298 296 294 292 289 284 279 275 272 270 268 265
322 322 322 322 322 322 323 324 325 325 325 324 321 319 318 316 316 316 315 314 312 311 309 307 305 303 301 301 301 300 299 297 296 294 292 289 285 280 277 274 272 270
321 321 320 321 321 322 323 324 324 324 324 323 321 318 317 316 316 315 314 313 311 309 307 305 303 300 299 299 301 300 300 300 299 298 296 294 291 287 284 281 278 276
320 320 320 320 321 322 323 323 323 323 323 321 320 318 316 316 315 315 313 312 309 307 305 303 300 296 296 298 300 300 302 302 302 301 300 298 295 293 290 287 284 281
319 319 320 321 322 322 322 322 323 322 321 320 319 317 316 315 315 313 312 309 307 305 302 300 295 292 293 296 298 300 303 304 305 304 304 302 300 297 295 291 288 285
319 320 321 321 322 322 322 322 322 321 320 319 317 316 315 314 313 311 309 307 305 302 300 296 291 288 291 294 296 299 303 305 306 306 306 305 303 301 299 296 292 289
320 321 321 321 321 321 321 320 320 319 318 317 316 315 313 312 310 309 307 306 303 300 297 292 286 285 288 292 294 297 301 303 305 306 306 306 305 304 302 299 296 293
321 320 320 319 319 319 319 319 318 317 316 315 314 313 311 309 308 307 305 303 301 298 294 287 281 282 286 289 292 296 299 301 303 304 304 305 305 304 303 301 299 297
320 319 318 318 317 317 317 317 316 315 314 313 312 310 308 307 306 305 303 301 298 295 290 282 278 280 284 288 291 295 297 299 300 302 302 303 303 303 303 302 300 298
317 317 316 315 315 315 314 314 313 312 312 311 309 307 305 305 304 303 301 298 295 292 285 277 276 279 283 286 290 293 295 297 298 299 299 300 300 300 301 300 299 297